Location: Kawakawa
(35.3830°S, 174.0670°E)
Time: 13:41:55
(UTC+13:00)

Explorer 7 - Pass Details

Date: 15 December 2019
Orbit: 485 x 679 km, 50.3° (Epoch: 26 January)

Event Time Altitude Azimuth Distance (km) Brightness Sun altitude
Rises 10:01:03 0° 229° (SW) 2,588 9.9 45.8°
Reaches altitude 10° 10:03:13 10° 226° (SW) 1,713 9.1 46.2°
Maximum altitude 10:07:04 72° 141° (SE) 542 7.9 47.0°
Drops below altitude 10° 10:11:04 10° 56° (NE) 1,772 10.2 47.8°
Sets 10:13:20 0° 54° (NE) 2,687 10.9 48.3°
